Regional Weather Roundup
Issued by NWS New Orleans/Baton Rouge, LA

Home | Current Version | Previous Version | Graphics & Text | Print | Product List | Glossary On
Versions: 1 2 3 4 5 6 7 8 9 10 11 12 13 14 15 16 17 18 19 20 21 22 23 24 25 26 27 28 29 30 31 32 33 34 35 36 37 38 39 40 41 42 43 44 45 46 47 48 49 50
807
ASUS44 KLIX 240401
RWRLIX
NEW ORLEANS REGIONAL WEATHER ROUNDUP
NATIONAL WEATHER SERVICE NEW ORLEANS LA
1100 PM CDT WED JUL 23 2014

NOTE: "FAIR" INDICATES FEW OR NO CLOUDS BELOW 12,000 FEET WITH NO
      SIGNIFICANT WEATHER AND/OR OBSTRUCTIONS TO VISIBILITY.
      SKY/WX - SKY CONDITION AND SIGNIFICANT WEATHER.
      TMP - AIR TEMPERATURE.     DP    - DEWPOINT TEMPERATURE.
      RH  - RELATIVE HUMIDITY.   PRES  - PRESSURE.
      HI  - HEAT INDEX.          WCI   - WIND CHILL INDEX.

*  THESE STATIONS ARE NOT NWS OR FAA STATIONS AND ARE NOT UNDER
   NWS QUALITY CONTROL.

LAZ038-040-048-061>063-065>067-069-240500-
SOUTHEAST LOUISIANA

CITY           SKY/WX    TMP DP  RH WIND       PRES   REMARKS
N.O. AUDUBON     N/A     80  73  77 MISG        N/A
N.O. INTL ARPT MOCLDY    78  72  81 CALM      30.02R
N.O. LAKEFRONT PTCLDY    79  72  79 SE6       30.02S
N.O. DOWNTOWN*   N/A     81  70  69 S3        30.03R
SLIDELL        CLEAR     75  71  87 CALM      30.02R
BATON ROUGE    CLEAR     77  73  87 NE3       30.01S
BOOTHVILLE       N/A     79  73  82 SW5       30.03R
BELLE CHASSE   MOCLDY    75  72  90 CALM      30.01F
BOGALUSA*        N/A     77  73  86 S3        30.02F
GALLIANO*      NOT AVBL
NEW ROADS*       N/A     76  75  96 CALM      30.01S FOG
GONZALES*        N/A     75  75 100 CALM      30.01S
HAMMOND*       CLEAR     77  72  83 CALM      30.03S
HOUMA*         PTCLDY    74  71  88 CALM      30.02S
PORT FOURCHON* PTCLDY    81  73  78 CALM      30.03F

$$

MSZ070-080>082-240500-
SOUTHERN MISSISSIPPI

CITY           SKY/WX    TMP DP  RH WIND       PRES   REMARKS
MCCOMB         MOCLDY    77  72  84 CALM      30.02S
GULFPORT       CLEAR     79  72  79 CALM      30.02S
BILOXI         CLEAR     77  71  83 CALM      30.02S
PASCAGOULA     CLEAR     73  72  96 CALM      30.03S

$$

COASTAL OBSERVATIONS
LAKE AND NEARSHORE STATIONS

STATION/POSITION TIME  TEMP    WIND        PRES    WAVE
                       AIR SEA DIR/SP/G            HT/PER
                 (UTC) (F)     (DEG/KT/KT) (MB)    (FT/S)
WAVELAND YACHT   0300   79     280/  1/  2 1015.9
GRAND ISLE       0300   80 85  240/  2/  3 1017.3
SOUTHWEST PASS   0300   82 85  200/  4/  6 1017.1
NEW CANAL        0300   80 82  140/  2/  3 1016.8
SHELL BEACH      0300   80 81  110/  4/  5 1016.6

OFFSHORE STATIONS

STATION/POSITION TIME  TEMP    WIND        PRES    WAVE
                       AIR SEA DIR/SP/G            HT/PER
                 (UTC) (F)     (DEG/KT/KT) (MB)    (FT/S)
64 S DAUPHIN ISL 0303   82 85  210/  8/ 10 1017.2

$$




USA.gov is the U.S. government's official web portal to all federal, state and local government web resources and services.